Dewpoint
54 54 55 56 57 57 58 58 58 58 59 59 59 60 60 59 59 58 58 59 60 61 61 61 61 61 61 61 58 60 54 37 34 29 27 31 43 55 56 57 59 60 57 45 36 31 26 25 26 28 17 16 24 24 27 26 34 24 16 14 10 14 13 18 18 20 20 22 23 29 32 32 31 31 31 30 32 33 33 34 34 34 33 31 29 32 33 36
55 55 56 57 56 57 57 57 58 58 59 59 59 60 60 60 59 57 58 60 60 61 61 61 61 61 59 59 58 59 43 38 30 27 29 42 55 57 57 59 59 58 53 33 36 36 26 24 29 25 17 16 26 23 28 26 23 22 21 14 14 18 16 24 21 23 23 20 27 30 32 32 31 29 29 28 29 29 30 32 33 33 33 33 33 33 34 34
55 55 56 56 56 57 57 57 58 58 58 59 59 60 60 60 59 59 59 60 59 60 61 61 61 60 58 58 58 56 39 31 23 19 23 51 54 57 58 59 59 56 38 32 36 39 35 32 32 22 21 17 22 21 25 24 25 26 19 19 20 22 21 24 24 24 25 24 24 25 29 31 30 29 29 28 28 28 28 28 29 32 32 32 33 32 34 33
54 55 55 55 56 56 57 57 57 58 58 59 59 59 59 60 59 59 60 60 60 61 60 60 61 60 59 58 59 46 33 30 25 23 29 50 55 56 57 58 59 53 42 40 42 42 40 30 23 20 23 20 24 24 23 25 20 24 21 19 21 25 20 20 21 23 25 28 23 25 30 27 30 30 29 30 27 27 28 29 28 28 30 31 32 32 34 32
54 54 55 55 55 56 57 57 58 58 59 59 59 59 59 60 60 60 60 60 61 61 61 61 60 59 59 57 56 39 29 21 22 32 30 53 55 55 56 58 59 46 41 42 42 31 28 18 20 24 22 15 27 21 21 24 21 24 21 24 21 22 19 20 22 25 25 26 24 24 24 22 29 29 29 29 28 26 25 25 31 30 28 28 29 32 33 33
54 54 55 55 55 56 57 57 57 58 59 59 59 60 60 59 59 60 60 60 60 61 61 61 59 55 57 54 40 38 29 8 22 26 47 52 53 54 53 58 57 45 40 32 29 25 20 20 13 19 19 16 16 15 18 24 26 19 23 22 24 23 20 21 25 27 26 24 24 24 24 27 27 27 28 30 29 28 29 29 33 33 32 31 31 32 31 33
54 54 55 55 56 56 57 57 57 58 58 59 59 60 60 58 59 60 60 61 61 61 61 60 59 58 55 52 41 30 24 21 25 29 47 52 52 51 53 55 51 38 34 24 26 24 22 19 16 20 20 20 23 20 26 32 31 22 23 26 26 23 21 22 21 25 26 24 23 25 28 25 26 25 28 28 28 31 31 32 33 34 35 35 32 32 31 32
54 55 55 55 56 56 57 57 58 58 59 59 59 59 59 60 60 60 60 61 61 61 61 60 59 55 51 38 33 32 25 20 23 35 45 49 38 39 46 40 36 32 28 25 27 24 21 21 20 25 22 20 22 26 29 24 29 24 24 29 27 26 21 21 22 23 24 25 25 26 25 24 24 24 24 23 24 25 25 29 30 31 33 34 33 33 33 32
54 55 55 56 56 56 57 57 58 59 59 59 59 59 59 59 60 60 60 60 61 61 61 60 57 56 50 39 36 25 21 23 25 30 33 31 31 37 36 26 36 28 27 26 27 26 21 23 27 24 22 23 26 27 29 23 23 28 27 30 29 27 27 27 27 26 24 24 25 24 23 23 23 25 21 21 21 21 22 22 24 26 27 28 31 33 33 32
55 55 56 56 56 56 57 57 58 58 58 59 58 59 59 60 60 60 60 60 59 59 60 58 59 52 42 37 29 18 19 25 28 32 31 31 32 35 33 34 32 28 25 24 27 28 26 25 26 26 24 25 29 27 30 24 23 30 30 30 28 26 28 28 25 24 23 24 24 22 21 21 22 21 19 22 20 25 22 21 21 24 23 23 27 31 34 34
55 55 56 56 56 56 57 57 58 58 58 58 58 59 60 60 60 60 60 60 58 58 59 60 60 45 30 31 27 23 25 28 29 30 31 31 32 30 28 31 30 29 26 27 28 28 29 27 28 31 26 20 28 25 28 26 31 29 29 28 28 28 25 27 23 22 22 22 23 23 21 22 22 22 21 19 20 23 21 20 21 21 21 21 23 24 26 32
55 55 55 56 56 57 57 57 57 58 58 59 60 60 60 60 60 60 59 59 59 59 59 60 53 34 33 28 27 26 27 28 32 30 29 30 30 32 34 35 30 29 28 28 29 30 29 30 34 27 22 29 26 28 29 31 30 29 28 25 26 23 20 22 20 21 22 21 24 23 21 18 22 21 20 20 21 20 20 20 21 21 21 21 22 22 23 25
55 55 55 56 56 57 57 57 58 58 58 59 60 60 60 58 58 59 58 55 59 59 59 58 49 42 36 29 26 28 33 31 33 31 28 30 29 31 33 34 30 30 29 29 29 31 35 38 34 30 33 30 29 21 26 30 29 29 27 25 23 21 16 20 22 21 21 21 24 25 15 10 14 18 18 20 20 20 21 21 21 22 22 22 22 22 23 24
55 55 55 56 56 57 57 57 58 58 59 59 59 58 57 57 57 57 57 56 56 58 58 57 44 38 30 25 27 32 36 36 30 26 27 29 26 25 28 30 29 27 31 27 29 37 39 37 33 32 36 30 26 33 30 29 29 18 24 24 18 16 9 15 23 24 21 23 23 26 17 19 17 17 21 23 21 22 21 21 21 22 22 22 23 23 23 23
55 55 55 56 57 57 57 57 58 59 58 57 57 57 57 56 56 56 58 53 57 58 58 52 43 37 28 26 29 32 49 27 24 24 28 23 24 24 25 28 28 27 27 26 26 32 38 37 34 31 26 32 32 27 23 24 23 24 19 15 18 14 17 21 24 24 24 24 24 23 16 20 19 21 22 22 24 22 20 20 20 21 22 22 22 22 22 22
55 55 56 56 57 56 57 58 58 57 57 57 57 57 57 56 56 57 57 54 54 54 49 38 38 34 28 22 22 35 25 22 22 25 28 24 23 24 25 28 28 26 28 26 28 31 35 33 30 28 29 29 27 24 19 20 20 21 18 10 15 16 18 18 21 27 29 24 26 23 20 22 20 19 19 23 22 20 20 20 21 22 23 23 23 22 22 23
54 55 56 56 56 57 57 58 57 57 56 56 57 54 53 54 55 55 56 53 47 51 37 31 36 38 21 26 24 20 21 22 26 25 26 24 25 27 27 26 25 26 30 28 29 30 31 31 31 28 29 27 27 21 16 15 15 16 20 17 17 16 19 15 20 26 27 25 22 25 21 22 21 21 23 23 21 21 19 19 21 22 23 24 24 23 22 21
54 55 56 56 56 57 57 58 57 56 56 56 55 52 43 54 52 48 43 46 47 44 41 39 35 27 23 21 20 20 22 23 25 25 25 24 28 27 27 27 27 27 31 28 27 27 31 24 28 19 22 24 25 23 16 5 14 18 20 21 21 21 21 18 17 18 25 24 22 21 22 23 23 22 20 20 21 21 19 18 21 22 24 26 26 26 24 23
55 55 56 56 56 57 58 58 56 56 55 54 57 53 54 52 44 36 38 36 34 29 23 25 25 19 16 20 21 23 24 25 28 23 23 25 27 30 31 30 32 25 24 27 27 32 30 25 24 22 18 21 22 23 20 17 19 20 22 20 20 19 17 14 19 24 25 22 22 19 17 18 19 20 21 21 21 20 17 17 21 21 24 26 26 28 28 29
55 55 56 56 56 57 57 57 56 56 55 46 42 40 40 33 33 26 32 35 27 26 26 25 28 26 25 23 22 23 25 25 20 21 25 27 27 26 26 32 32 29 30 23 28 32 29 20 18 14 20 22 24 25 23 24 23 24 24 23 23 21 20 21 22 25 26 22 21 20 20 21 21 21 21 21 21 16 14 15 19 22 24 26 25 27 28 30
54 55 55 56 56 57 57 56 56 56 54 44 42 36 25 28 25 20 24 25 31 35 32 30 27 25 21 22 23 26 21 18 21 20 25 29 30 22 22 31 29 22 25 29 27 30 25 15 16 21 24 25 25 25 26 26 26 25 25 22 19 19 15 15 18 25 25 21 21 20 21 21 21 20 20 20 19 14 14 15 19 21 24 25 24 25 27 28
54 55 55 56 56 57 57 56 55 56 50 42 38 32 33 33 33 31 27 21 27 31 29 28 30 22 22 24 24 27 21 17 13 17 25 27 28 20 26 28 25 20 27 27 21 20 17 16 20 23 25 26 26 26 27 26 25 24 20 17 13 12 18 20 21 25 24 23 20 20 20 20 20 20 21 19 18 17 15 17 20 22 24 24 23 24 26 27
54 55 55 56 57 57 56 55 55 51 42 39 36 36 36 40 43 43 33 27 24 28 28 28 24 23 22 24 25 24 17 17 19 17 23 26 28 30 30 25 24 27 27 24 16 17 13 17 23 25 27 27 24 24 22 20 21 19 16 13 12 16 15 14 18 23 24 21 19 21 20 20 20 16 14 15 19 17 19 20 23 24 27 25 22 23 25 26
54 55 55 56 57 56 56 54 51 42 39 38 38 37 40 41 42 42 31 23 18 21 29 28 24 23 24 23 25 29 19 22 22 17 25 24 26 28 29 25 20 23 24 24 21 17 14 19 27 25 24 25 23 23 22 19 16 18 19 13 14 15 17 16 18 22 23 20 23 21 16 11 14 8 7 11 19 13 15 16 20 20 22 23 22 18 19 22
54 55 55 56 56 55 54 51 42 36 39 34 37 41 41 41 42 41 27 23 19 15 29 25 27 23 24 27 32 31 32 28 22 24 25 25 25 31 25 29 22 17 21 26 21 21 21 24 27 24 23 21 18 18 21 19 17 17 17 15 15 18 20 21 22 22 13 11 21 20 9 2 8 9 13 13 14 10 14 15 15 15 16 19 20 21 22 23
54 55 55 56 55 54 52 41 37 39 36 34 35 42 41 41 42 37 22 18 2 10 24 18 24 18 24 23 25 30 27 21 21 22 30 27 29 30 26 20 23 19 23 21 18 18 21 23 24 22 20 18 19 17 20 19 17 9 12 18 19 21 21 20 20 17 8 1 9 21 0 2 7 4 4 13 12 11 13 15 16 18 19 20 20 21 21 21
54 55 56 56 54 53 35 31 33 39 34 39 44 41 40 41 42 41 31 14 7 12 12 21 22 16 27 23 26 25 12 15 20 24 21 25 26 29 20 18 21 25 27 24 20 4 24 22 23 22 18 16 13 13 16 20 16 13 14 21 20 20 19 19 20 18 15 19 20 22 11 3 4 2 13 11 10 11 15 17 19 19 20 20 20 20 21 21
55 55 55 55 53 48 33 36 31 31 33 44 41 40 41 41 40 34 21 0 -5 19 13 20 19 26 24 26 23 20 16 21 16 16 27 27 24 24 24 20 17 16 23 18 0 8 19 21 22 21 18 15 10 12 18 21 17 17 19 21 21 21 21 21 19 19 19 9 8 12 19 -3 0 8 5 12 13 15 18 19 20 20 20 20 20 21 20 20
55 55 55 53 54 52 45 33 30 31 41 41 39 41 43 39 34 26 17 -2 6 22 23 21 25 20 24 26 23 24 24 24 16 21 27 25 22 22 14 16 23 22 19 20 14 13 19 24 22 22 16 14 16 18 21 22 20 22 23 21 21 22 23 22 19 18 13 6 -2 8 16 -5 -0 4 4 14 17 18 19 20 20 20 20 20 21 20 20 20
56 55 54 53 45 39 44 40 35 40 39 40 42 42 38 31 24 16 3 -8 10 7 18 20 21 15 24 20 20 22 19 20 25 24 25 19 18 25 25 24 19 15 10 18 15 13 17 29 27 23 19 19 24 24 23 23 23 24 21 16 13 13 17 19 15 9 -1 -14 4 8 15 -0 -1 5 14 16 17 19 20 20 19 20 19 20 20 20 20 20
54 53 51 50 35 36 40 34 37 39 40 42 42 35 27 19 16 5 -7 -2 21 17 22 19 16 24 22 18 14 21 23 22 20 23 19 22 19 21 20 13 20 15 15 14 10 14 20 21 21 25 30 25 24 21 22 25 24 19 16 15 8 2 5 12 9 6 -13 -7 2 3 12 7 -1 5 15 19 20 21 21 19 19 19 18 19 19 20 20 19
53 53 52 43 42 37 23 25 35 40 41 40 34 28 19 4 17 8 0 20 4 11 12 13 21 21 21 21 17 16 16 19 19 20 16 17 18 18 18 14 14 -1 6 8 6 16 13 13 19 19 29 22 22 12 11 19 19 18 15 13 7 2 1 -2 -1 -2 -12 -8 -2 5 9 5 6 12 16 17 19 20 21 21 19 19 18 18 18 18 20 19
51 50 50 45 42 35 35 33 40 41 41 37 28 23 19 12 -7 2 6 12 2 16 14 21 20 21 18 16 13 18 20 11 18 18 21 18 16 17 20 20 19 -4 -7 3 6 9 9 13 10 14 18 24 17 11 10 8 11 17 14 10 6 -2 -7 -8 -4 -10 -5 -0 -1 0 7 6 7 14 16 15 16 17 19 19 20 18 17 17 17 17 18 18
51 47 38 42 39 37 37 41 40 41 34 33 17 18 14 5 -14 25 7 12 8 21 23 19 20 17 14 5 12 18 11 14 15 13 20 15 16 13 16 19 20 15 12 14 2 5 -1 2 8 10 5 16 19 12 14 13 14 17 16 15 6 2 -2 -3 -10 -5 1 3 4 5 1 1 1 12 16 15 15 14 13 14 15 15 15 16 17 15 16 16
50 44 41 38 38 39 41 40 40 39 31 22 17 17 5 -8 -1 0 2 12 17 21 19 21 12 11 10 14 13 16 11 9 15 14 15 13 11 17 16 16 20 16 13 7 3 4 3 -0 3 13 11 19 15 21 21 19 13 15 20 19 11 5 12 1 3 -3 -2 7 8 1 4 8 8 16 17 15 12 11 12 11 12 10 10 12 13 13 15 15
46 33 38 33 34 32 39 41 37 27 17 11 12 13 7 3 -2 8 9 20 20 17 19 15 14 10 9 11 14 11 15 9 15 9 7 17 17 14 18 19 18 20 15 4 -1 -2 8 -5 -0 14 20 18 19 23 19 16 2 10 11 4 12 18 13 5 11 11 8 2 7 4 11 11 12 15 13 11 10 9 11 9 9 9 8 10 11 12 13 14
36 36 28 29 29 31 41 40 37 27 19 14 16 5 9 12 15 13 28 19 20 22 14 3 5 8 5 7 8 11 14 14 9 6 -1 11 4 15 16 17 21 21 17 15 12 5 1 4 12 12 9 12 21 22 23 24 16 15 6 9 18 18 16 11 4 0 0 0 2 2 5 7 5 6 14 11 9 9 10 8 8 9 8 9 11 12 14 15
35 33 29 27 27 33 40 38 30 25 20 14 18 25 19 14 22 21 23 22 23 20 12 7 2 9 3 6 10 10 16 9 7 11 4 9 2 18 17 16 19 21 22 20 8 11 12 8 10 12 12 14 16 13 7 21 22 19 14 16 13 6 5 11 -0 -2 -2 -2 1 2 4 6 6 10 12 10 8 8 9 9 9 9 9 11 13 14 15 16
33 29 18 23 29 34 40 29 24 17 13 20 15 23 20 17 21 23 24 23 23 20 14 12 2 7 9 7 9 12 14 9 10 7 -2 1 -2 10 14 17 15 22 23 22 18 18 14 5 10 9 11 12 4 4 1 3 11 22 21 21 21 10 9 3 5 2 -1 5 1 -1 -1 4 10 10 11 9 9 10 10 10 11 12 13 14 16 16 17 18
32 19 13 22 28 34 36 26 23 20 18 15 10 14 20 21 24 25 25 26 23 14 12 12 17 3 10 13 12 10 16 15 15 12 3 5 7 13 14 22 18 19 22 22 18 20 14 9 1 7 12 9 2 2 -1 -1 3 10 9 7 9 7 15 11 5 6 7 3 -1 1 4 4 14 14 11 10 12 12 13 12 12 13 15 15 15 16 17 18
27 20 16 29 27 31 28 24 21 21 20 19 21 21 21 21 24 24 26 26 28 26 20 17 17 13 11 14 10 16 16 17 16 10 12 9 4 4 14 20 22 20 22 18 17 16 7 10 5 10 10 3 4 4 1 3 8 9 9 8 13 7 10 6 7 2 1 3 4 3 7 10 14 14 11 13 14 13 12 12 13 14 14 14 15 16 17 18
22 12 14 25 27 28 24 18 19 22 22 19 15 22 25 35 22 22 24 27 25 24 24 21 21 19 18 18 15 19 19 14 15 10 10 6 9 5 10 21 25 26 18 13 15 18 16 14 14 11 9 7 6 6 16 13 12 14 17 17 14 8 5 3 7 7 9 12 11 12 11 12 16 14 15 15 13 11 12 12 11 11 13 14 15 16 17 17
19 11 23 30 28 25 14 14 23 24 18 23 25 22 23 21 21 21 20 23 18 22 20 20 20 14 16 21 20 20 19 8 13 7 10 14 15 12 20 23 26 26 20 16 14 21 25 8 3 7 7 12 14 10 14 15 14 11 18 18 17 14 12 10 10 14 11 14 13 11 8 12 17 17 16 15 14 12 11 11 11 11 12 13 14 15 16 15
18 11 16 28 28 29 16 7 11 11 17 22 22 23 23 22 22 21 19 20 23 21 19 19 19 20 19 21 21 19 19 -4 6 12 13 15 14 25 25 26 25 21 17 16 11 19 6 10 8 3 4 3 0 2 6 13 10 12 15 16 15 12 11 10 9 4 9 14 10 9 4 9 15 16 14 13 11 10 9 9 11 12 13 12 13 14 14 13
14 19 24 21 24 20 12 17 18 19 20 16 16 16 17 16 23 23 21 22 25 22 17 16 20 21 21 22 22 22 22 6 9 15 10 10 15 21 21 20 20 22 26 28 30 23 10 12 5 -2 -2 -0 -0 1 3 6 11 12 16 11 11 10 10 11 9 10 8 9 10 9 8 11 11 14 14 13 11 9 7 8 10 11 11 11 12 13 14 13
16 4 12 13 16 21 22 23 21 19 14 11 15 13 14 12 14 22 24 24 24 23 22 22 21 22 20 19 19 20 19 20 10 8 14 12 15 16 21 22 22 25 29 28 26 21 10 13 10 7 4 3 8 9 9 16 12 12 11 9 9 8 9 8 9 7 6 8 10 12 12 7 8 14 13 12 9 6 7 9 9 9 10 10 11 12 13 13
20 20 12 3 17 16 18 21 23 21 12 20 15 13 6 16 12 13 25 16 23 24 25 20 21 15 16 19 19 17 19 18 16 15 13 9 12 14 22 24 25 29 29 27 26 11 6 10 15 12 9 11 10 9 12 18 15 12 8 9 9 9 9 10 8 7 10 10 6 6 7 10 11 14 12 10 7 7 8 9 9 9 10 11 11 12 18 13
18 14 19 18 16 3 17 13 21 22 22 22 14 19 17 13 17 9 17 21 23 23 16 12 19 22 21 20 18 5 13 14 9 0 12 11 11 17 14 20 25 27 27 25 21 16 12 9 5 9 8 12 14 13 14 17 15 12 10 10 10 11 9 7 8 9 9 9 6 7 9 11 14 13 11 6 7 8 9 9 10 11 11 11 12 12 12 13
18 18 20 23 16 14 17 16 23 22 22 23 23 20 15 15 15 19 17 20 17 15 16 5 11 18 20 23 20 13 17 4 8 7 9 10 11 15 10 11 24 24 22 20 20 13 8 7 5 8 13 13 13 14 15 17 15 11 10 10 10 10 10 10 10 11 10 11 11 11 11 12 15 10 7 7 9 9 10 11 11 10 10 12 12 12 12 13
12 16 12 22 22 20 19 18 20 20 20 23 16 18 20 18 15 20 21 17 8 12 20 16 16 20 21 23 22 13 12 12 11 9 12 13 17 12 9 10 13 19 21 18 15 15 11 10 15 9 11 12 11 11 12 16 12 11 10 10 10 10 10 11 12 11 13 12 11 11 12 13 12 8 8 9 10 11 11 10 10 10 11 12 12 12 13 14
16 21 21 17 18 17 20 17 17 20 18 21 17 18 21 19 17 20 18 21 13 14 19 16 19 22 23 21 24 23 23 21 20 20 20 18 17 18 11 9 21 18 16 15 10 16 10 12 9 8 13 11 9 12 15 15 12 11 11 10 10 10 10 10 11 12 12 10 11 12 11 9 9 8 9 10 10 10 10 10 10 11 12 12 12 13 14 14
16 19 25 23 14 20 15 16 19 20 12 16 22 23 18 20 22 23 17 22 25 23 21 21 22 22 20 14 12 14 17 20 22 23 22 21 21 22 22 22 22 18 16 11 6 14 7 11 11 8 13 10 11 15 14 13 12 6 11 12 12 11 11 10 10 10 11 12 11 10 11 11 8 10 10 10 10 10 10 10 11 11 12 13 13 14 13 13